Arctic Village, AK

7:09 AM AKST on November 23, 2017 (GMT -0900)
Arctic Village

Weather History for PARC - January, 2014

Change the Weather History Date:

Friday, January 24, 2014

  Actual Average Record
Temperature  
Mean Temperature 13 °F -  
Max Temperature 21 °F -28 °F 24 °F (2000)
Min Temperature 5 °F -43 °F -65 °F (1989)
Degree Days  
Heating Degree Days 52    
Moisture  
Dew Point 0 °F    
Average Humidity 57    
Maximum Humidity 100    
Minimum Humidity 30    
Precipitation  
Precipitation 0.02 in - - ()
Sea Level Pressure  
Sea Level Pressure 29.79 in    
Wind  
Wind Speed 3 mph (NE)    
Max Wind Speed 10 mph    
Max Gust Speed -    
Visibility 6 miles    
Events      
Averages and records for this station are not official NWS values.
T = Trace of Precipitation, MM = Missing Value Source: NWS Daily Summary

Daily Weather History Graph

Daily Weather History Graph

Search for Another Location

Airport or City:

Trip Planner

Search our weather history database for the weather conditions in past years. The results will help you decide how hot, cold, wet, or windy it might be!

Date:

Astronomy

Jan. 24, 2014 Rise Set
Actual Time 10:34 AM AKST 3:15 PM AKST
Civil Twilight 9:12 AM AKST 4:37 PM AKST
Nautical Twilight 7:57 AM AKST 5:52 PM AKST
Astronomical Twilight 6:51 AM AKST 6:59 PM AKST
Moon 3:23 AM AKST (1/24) 10:20 AM AKST (1/24)
Length of Visible Light 7h 25m
Length of Day
4h 40m
Last Quarter, 43% of the Moon is Illuminated
Jan 24
Last Quarter
Jan 30
New
Feb 6
First Quarter
Feb 14
Full
Feb 22
Last Quarter

Hourly Weather History & Observations

Time (AKST) Temp. Windchill Dew Point Humidity Pressure Visibility Wind Dir Wind Speed Gust Speed Precip Events Conditions
12:16 AM 10.4 °F - 8.6 °F 92% 29.83 in 2.5 mi Calm Calm - N/A   Clear
12:36 AM 10.4 °F - -14.8 °F 31% 29.83 in 1.2 mi Calm Calm - N/A   Mostly Cloudy
12:56 AM 12.2 °F 4.3 °F -11.2 °F 34% 29.83 in 10.0 mi NE 4.6 mph - N/A   Partly Cloudy
1:16 AM 10.4 °F 2.2 °F -5.8 °F 48% 29.83 in 9.0 mi NNE 4.6 mph - N/A   Clear
1:36 AM 10.4 °F 2.2 °F -11.2 °F 37% 29.83 in 2.0 mi NE 4.6 mph - N/A   Clear
1:56 AM 8.6 °F 0.1 °F -16.6 °F 31% 29.83 in 10.0 mi NE 4.6 mph - N/A   Clear
2:16 AM 6.8 °F -4.8 °F -14.8 °F 37% 29.82 in 10.0 mi NNE 6.9 mph - N/A   Clear
2:36 AM 6.8 °F - 6.8 °F 100% 29.82 in 10.0 mi Calm Calm - N/A   Clear
2:56 AM 8.6 °F 2.0 °F - N/A% 29.83 in 10.0 mi East 3.5 mph - N/A   Clear
3:16 AM 6.8 °F -2.0 °F -9.4 °F 48% 29.83 in 10.0 mi North 4.6 mph - N/A   Clear
3:36 AM 5.0 °F -2.1 °F -20.2 °F 30% 29.83 in 10.0 mi NE 3.5 mph - N/A   Clear
3:56 AM 6.8 °F -2.0 °F -14.8 °F 37% 29.81 in 10.0 mi NE 4.6 mph - N/A   Clear
4:16 AM 6.8 °F -4.8 °F - N/A% 29.81 in 10.0 mi NNE 6.9 mph - N/A   Clear
4:36 AM 6.8 °F -4.8 °F 6.8 °F 100% 29.79 in 10.0 mi ENE 6.9 mph - N/A   Clear
4:56 AM 8.6 °F -1.3 °F -11.2 °F 40% 29.79 in 10.0 mi East 5.8 mph - N/A   Clear
5:16 AM 8.6 °F -1.3 °F -16.6 °F 31% 29.79 in 10.0 mi East 5.8 mph - N/A   Clear
5:36 AM 10.4 °F 0.8 °F -14.8 °F 31% 29.79 in 10.0 mi ENE 5.8 mph - N/A   Clear
5:56 AM 10.4 °F 0.8 °F -7.6 °F 44% 29.78 in 10.0 mi NNE 5.8 mph - N/A   Clear
6:16 AM 10.4 °F -0.4 °F 10.4 °F 100% 29.77 in 10.0 mi East 6.9 mph - N/A   Clear
6:36 AM 10.4 °F 4.0 °F - N/A% 29.76 in 10.0 mi East 3.5 mph - N/A   Clear
6:56 AM 10.4 °F 2.2 °F - N/A% 29.75 in 10.0 mi NNE 4.6 mph - N/A   Clear
7:16 AM 8.6 °F - 6.8 °F 92% 29.74 in 10.0 mi Calm Calm - N/A   Clear
7:36 AM 10.4 °F - -9.4 °F 41% 29.73 in 10.0 mi Calm Calm - N/A   Clear
7:56 AM 12.2 °F - -13.0 °F 32% 29.72 in 10.0 mi Calm Calm - N/A   Clear
8:16 AM 10.4 °F 4.0 °F -11.2 °F 37% 29.70 in 10.0 mi NE 3.5 mph - N/A   Clear
8:36 AM 10.4 °F 0.8 °F -13.0 °F 34% 29.69 in 10.0 mi East 5.8 mph - N/A   Clear
8:56 AM 12.2 °F - -7.6 °F 41% 29.68 in 10.0 mi Calm Calm - N/A   Mostly Cloudy
9:16 AM 12.2 °F 4.3 °F -0.4 °F 57% 29.67 in 10.0 mi NE 4.6 mph - N/A   Overcast
9:36 AM 12.2 °F 1.7 °F 1.4 °F 62% 29.66 in 10.0 mi ENE 6.9 mph - N/A   Overcast
9:56 AM 14.0 °F 3.9 °F 1.4 °F 57% 29.66 in 10.0 mi East 6.9 mph - N/A   Overcast
10:16 AM 14.0 °F - -0.4 °F 53% 29.67 in 10.0 mi Calm Calm - N/A   Overcast
10:36 AM 12.2 °F - -7.6 °F 41% 29.67 in 10.0 mi Calm Calm - N/A   Overcast
10:56 AM 14.0 °F 6.5 °F -5.8 °F 41% 29.67 in 10.0 mi WNW 4.6 mph - N/A   Mostly Cloudy
11:16 AM 15.8 °F - -7.6 °F 35% 29.69 in 10.0 mi Calm Calm - N/A   Overcast
11:36 AM 17.6 °F - -4.0 °F 38% 29.69 in 4.0 mi Calm Calm - N/A   Overcast
11:56 AM 17.6 °F - 3.2 °F 53% 29.70 in 1.2 mi Calm Calm - N/A   Overcast
12:16 PM 17.6 °F - - N/A% 29.70 in 1.0 mi Calm Calm - 0.01 in   Overcast
12:36 PM 17.6 °F 12.3 °F - N/A% 29.69 in 0.8 mi ENE 3.5 mph - 0.01 in   Overcast
12:56 PM 17.6 °F 12.3 °F 6.8 °F 63% 29.70 in 1.5 mi East 3.5 mph - 0.01 in   Overcast
1:16 PM 17.6 °F 10.7 °F -2.2 °F 42% 29.69 in 1.5 mi NE 4.6 mph - N/A   Overcast
1:36 PM 17.6 °F 12.3 °F 6.8 °F 63% 29.69 in 1.5 mi NE 3.5 mph - N/A   Overcast
1:56 PM 19.4 °F 14.3 °F - N/A% 29.69 in 2.5 mi East 3.5 mph - N/A   Overcast
2:16 PM 17.6 °F 12.3 °F 17.6 °F 100% 29.69 in 1.5 mi East 3.5 mph - N/A   Overcast
2:36 PM 19.4 °F - 3.2 °F 49% 29.69 in 1.5 mi Calm Calm - N/A   Overcast
2:56 PM 19.4 °F - 1.4 °F 46% 29.71 in 2.5 mi Calm Calm - N/A   Overcast
3:16 PM 19.4 °F - - N/A% 29.72 in 3.0 mi Calm Calm - N/A   Overcast
3:36 PM 19.4 °F - 19.4 °F 100% 29.73 in 5.0 mi Calm Calm - N/A   Overcast
3:56 PM 21.2 °F - 3.2 °F 46% 29.73 in 3.0 mi Calm Calm - N/A   Overcast
4:16 PM 19.4 °F - 19.4 °F 100% 29.75 in 1.8 mi Calm Calm - N/A   Overcast
4:36 PM 19.4 °F 14.3 °F - N/A% 29.76 in 1.8 mi West 3.5 mph - 0.01 in   Overcast
4:56 PM 21.2 °F 16.4 °F 3.2 °F 46% 29.77 in 2.5 mi WSW 3.5 mph - 0.01 in   Overcast
5:16 PM 21.2 °F 16.4 °F 15.8 °F 80% 29.78 in 6.0 mi SW 3.5 mph - N/A   Mostly Cloudy
5:36 PM 19.4 °F - - N/A% 29.78 in 10.0 mi Calm Calm - N/A   Clear
5:56 PM 19.4 °F - 5.0 °F 54% 29.79 in 10.0 mi Calm Calm - N/A   Clear
6:16 PM 19.4 °F - 3.2 °F 49% 29.80 in 10.0 mi Calm Calm - N/A   Partly Cloudy
6:36 PM 17.6 °F 12.3 °F - N/A% 29.82 in 10.0 mi SSW 3.5 mph - N/A   Partly Cloudy
6:56 PM 15.8 °F - - N/A% 29.83 in 10.0 mi Calm Calm - N/A   Mostly Cloudy
7:16 PM 17.6 °F 12.3 °F 3.2 °F 53% 29.85 in 10.0 mi WSW 3.5 mph - N/A   Overcast
7:36 PM 19.4 °F 12.8 °F -0.4 °F 42% 29.87 in 10.0 mi SW 4.6 mph - N/A   Overcast
7:56 PM 19.4 °F 12.8 °F 19.4 °F 100% 29.87 in 10.0 mi SW 4.6 mph - N/A   Overcast
8:16 PM 19.4 °F 14.3 °F - N/A% 29.89 in 8.0 mi SSW 3.5 mph - N/A   Overcast
8:36 PM 21.2 °F 10.1 °F 3.2 °F 46% 29.91 in 0.8 mi WSW 10.4 mph - N/A   Overcast
8:56 PM 21.2 °F 13.6 °F 21.2 °F 100% 29.92 in 1.2 mi SW 5.8 mph - N/A   Overcast
9:16 PM 21.2 °F - 19.4 °F 93% 29.92 in 0.8 mi Calm Calm - N/A   Overcast
9:36 PM 19.4 °F 12.8 °F 3.2 °F 49% 29.94 in 0.8 mi West 4.6 mph - N/A   Overcast
9:56 PM 19.4 °F 12.8 °F 12.2 °F 74% 29.96 in 1.0 mi WNW 4.6 mph - N/A   Overcast
10:16 PM 19.4 °F - - N/A% 29.98 in 1.5 mi Calm Calm - N/A   Overcast
10:36 PM 19.4 °F - 12.2 °F 74% 29.99 in 0.5 mi Calm Calm - N/A   Overcast
10:56 PM 19.4 °F - 3.2 °F 49% 30.00 in 0.2 mi Calm Calm - N/A   Overcast
11:16 PM 19.4 °F 11.5 °F - N/A% 30.00 in 0.2 mi North 5.8 mph - N/A   Overcast
11:36 PM 19.4 °F 14.3 °F 19.4 °F 100% 30.01 in 0.5 mi ENE 3.5 mph - N/A   Overcast
11:56 PM 19.4 °F 14.3 °F 1.4 °F 46% 30.02 in 0.8 mi NE 3.5 mph - N/A   Overcast